Regional Weather Roundup
Issued by NWS

Home | Current Version | Previous Version | Text Only | Print | Product List | Glossary Off
Versions: 1 2 3 4 5 6 7 8 9 10 11 12 13 14 15 16 17 18 19 20 21 22 23 24 25 26 27 28

000
ASUS45 KCYS 290210
RWRWY

WYOMING REGIONAL WEATHER ROUNDUP
NATIONAL WEATHER SERVICE CHEYENNE WY
800 PM MDT THU APR 28 2016

NOTE:  "FAIR" INDICATES FEW OR NO CLOUDS BELOW 12,000 FEET
WITH NO SIGNIFICANT WEATHER AND/OR OBSTRUCTIONS TO VISIBILITY.

WYZ001-290300-
YELLOWSTONE NATIONAL PARK

CITY           SKY/WX    TMP DP  RH WIND       PRES   REMARKS
LK YELLOWSTONE   N/A     33  24  69 CALM      29.93R
W YELLOWSTONE  NOT AVBL

$$
WYZ002>013-054>058-071-098>099-290300-
NORTHERN WYOMING

CITY           SKY/WX    TMP DP  RH WIND       PRES   REMARKS
JACKSON        CLOUDY    45  27  49 NE20      29.85R
CODY           CLOUDY    36  28  75 N8        30.03S WCI  29
GREYBULL       CLOUDY    46  28  49 N8        30.02R
WORLAND        CLOUDY    42  33  70 S3        30.02R
SHERIDAN       CLOUDY    37  33  85 S7        30.08S WCI  32
BUFFALO          N/A    N/A N/A N/A MISG      30.08R
GILLETTE       CLOUDY    36  33  89 N3        30.07S
HULETT         CLOUDY    36  32  87 E5        30.09S WCI  32
NEWCASTLE      CLOUDY    39  30  70 CALM      30.07R

$$
WYZ014>020-022>026-101>103-290300-
CENTRAL WYOMING

CITY           SKY/WX    TMP DP  RH WIND       PRES   REMARKS
BIG PINEY      CLOUDY    35  27  72 S14       29.94R WCI  26
PINEDALE       CLOUDY    36  27  69 S13       29.93R WCI  27
DUBOIS         FLURRIES  30  27  86 SE16G23   29.97R WCI  19
LANDER         CLOUDY    36  28  73 E9        30.01R WCI  29
RIVERTON       CLOUDY    36  26  67 E13       30.03R WCI  27
CASPER         CLOUDY    35  26  69 E10       30.04R WCI  27
DOUGLAS        CLOUDY    37  27  67 CALM      30.08R

$$
WYZ021-027>030-104>119-290300-
SOUTHERN WYOMING

CITY           SKY/WX    TMP DP  RH WIND       PRES   REMARKS
EVANSTON       CLOUDY    33  27  78 NE10      29.89S WCI  25
KEMMERER         N/A     32  28  86 E14       29.93R WCI  22
FORT BRIDGER   LGT SNOW  32  32 100 E13       29.94R WCI  22
ROCK SPRINGS   CLOUDY    32  27  81 NE21G28   29.94R WCI  20
DIXON          CLOUDY    41  35  79 E5        29.90R
RAWLINS        CLOUDY    31  27  85 NE22G28   29.93F WCI  18
SARATOGA       MOCLDY    34  34 100 W5        29.90F WCI  30
LARAMIE        LGT SNOW  29  27  92 SE15      29.97S FOG     WCI  18
CHEYENNE       CLOUDY    34  32  92 S5        30.02R WCI  30
TORRINGTON     CLOUDY    37  35  92 E6        30.08R WCI  32
PINE BLUFFS    DRIZZLE   34  34 100 E7        30.05R WCI  28

$$




USA.gov is the U.S. government's official web portal to all federal, state and local government web resources and services.